星链-3972 (STARLINK-3972 )

导读

STARLINK-3972是美国太空探索技术公司(SpaceX)发射的星链系列低轨通信卫星,于2022年5月18日发射入轨,属于星链全球低轨互联网星座组网的一部分。该卫星运行在近地轨道,配备相控阵天线,可与星链其他卫星、地面站协同,为全球提供高速低延迟的卫星互联网接入,服务偏远地区网络覆盖、海事航空通信等场景。

Basic Information
目录编号:
52669
目录名称:
STARLINK-3972
国际标识:
2022-053P
轨道中心:
EARTH
卫星名称:
星链-3972
卫星全名:
星链-3972 (STARLINK-3972 )
卫星状态:
在轨 (已飞行1491 天)
发射日期:
2022-05-18 UTC
国别 :
美国 (US)
星等 :
--
Orbit Information
数据来源 国际轨道数据 AOE轨道数据
星历时间 2026-06-17T08:10:19+0800
14小时前
查看轨道信息
2026-06-14T00:00:00+0800
3天前
查看轨道信息
半长轴 6917.885km 6917.909km
偏心率 0.0001372 0.0002148
轨道倾角 53.160° 53.156°
近地点辐角 91.427° 75.884°
升交点赤经 68.174° 83.191°
平近点角 268.688° 129.309°
近地点 538.798km 538.286km
远地点 540.698km 541.258km
周期 95.438分钟 95.438分钟
每日圈数 15.088388 15.088309
Detailed Information
固有亮度:
5
最大亮度:
2.5
卫星平台:
Starlink v1.5
覆盖范围:
全球
运营商:
太空探索技术公司
运营商所在国:
美国
制造商(研发单位):
太空探索技术公司
制造商所在国:
美国
使用方式:
暂无
Satellite Introduction
星链(Starlink)计划是由太空探索技术公司(SpaceX)提出的一个巨型低轨卫星互联网星座项目,计划在2019年至2024年间在太空搭建由约1.2万颗卫星组成的“星链”网络,其中1584颗将部署在地球上空550千米处的近地轨道,并从2020年开始工作。该卫星仍在工作。
2D Orbit Map
3D Orbit Map
Orbit Altitude Analysis Chart
Orbit Inclination Analysis Chart
Orbit Comprehensive Analysis Chart
View Comprehensive Chart